| time (UTC) | temp F | wind direction | speed MPH | gust MPH | rain 1hr in | rain 24hr in | rain mn in | humidity % | barometer mb |
| 20260504000009 | 68 | 291 | 7.0 | 13.0 | 0.00 | 0.00 | 0.00 | 62 | 1004.7 |
| 20260503235509 | 69 | 266 | 9.0 | 13.0 | 0.00 | 0.00 | 0.00 | 60 | 1004.6 |
| 20260503235009 | 71 | 260 | 9.0 | 13.0 | 0.00 | 0.00 | 0.00 | 57 | 1004.6 |
| 20260503234509 | 72 | 305 | 7.0 | 9.0 | 0.00 | 0.00 | 0.00 | 56 | 1004.6 |
| 20260503234009 | 73 | 256 | 7.0 | 9.0 | 0.00 | 0.00 | 0.00 | 55 | 1004.6 |
| 20260503233509 | 73 | 306 | 7.0 | 8.0 | 0.00 | 0.00 | 0.00 | 54 | 1004.6 |
| 20260503233008 | 74 | 284 | 5.0 | 8.0 | 0.00 | 0.00 | 0.00 | 51 | 1004.6 |
| 20260503232509 | 75 | 289 | 4.0 | 7.0 | 0.00 | 0.00 | 0.00 | 50 | 1004.6 |
| 20260503232009 | 76 | 243 | 4.0 | 7.0 | 0.00 | 0.00 | 0.00 | 48 | 1004.6 |
| 20260503231510 | 77 | 291 | 5.0 | 7.0 | 0.00 | 0.00 | 0.00 | 46 | 1004.6 |
| 20260503231009 | 78 | 259 | 2.0 | 5.0 | 0.00 | 0.00 | 0.00 | 45 | 1004.7 |
| 20260503230508 | 78 | 0 | 2.0 | 4.0 | 0.00 | 0.00 | 0.00 | 45 | 1004.8 |
| 20260503230008 | 78 | 278 | 0.0 | 4.0 | 0.00 | 0.00 | 0.00 | 44 | 1004.9 |
| 20260503225508 | 78 | 0 | 0.0 | 4.0 | 0.00 | 0.00 | 0.00 | 44 | 1005.0 |
| 20260503225008 | 79 | 338 | 0.0 | 5.0 | 0.00 | 0.00 | 0.00 | 44 | 1005.1 |
| 20260503224509 | 79 | 294 | 3.0 | 5.0 | 0.00 | 0.00 | 0.00 | 43 | 1005.1 |
| 20260503224009 | 79 | 329 | 1.0 | 5.0 | 0.00 | 0.00 | 0.00 | 43 | 1005.3 |
| 20260503223509 | 79 | 294 | 0.0 | 3.0 | 0.00 | 0.00 | 0.00 | 43 | 1005.2 |
| 20260503223008 | 79 | 0 | 0.0 | 0.0 | 0.00 | 0.00 | 0.00 | 43 | 1005.2 |
| 20260503222509 | 79 | 0 | 0.0 | 5.0 | 0.00 | 0.00 | 0.00 | 44 | 1005.3 |
| 20260503222009 | 79 | 302 | 0.0 | 5.0 | 0.00 | 0.00 | 0.00 | 44 | 1005.4 |
| 20260503221510 | 79 | 329 | 0.0 | 5.0 | 0.00 | 0.00 | 0.00 | 45 | 1005.4 |
| 20260503221008 | 78 | 320 | 1.0 | 4.0 | 0.00 | 0.00 | 0.00 | 46 | 1005.5 |
| 20260503220508 | 78 | 289 | 1.0 | 4.0 | 0.00 | 0.00 | 0.00 | 46 | 1005.5 |
| 20260503220008 | 77 | 0 | 0.0 | 0.0 | 0.00 | 0.00 | 0.00 | 47 | 1005.6 |
| 20260503215624 | 77 | 0 | 0.0 | 0.0 | 0.00 | 0.00 | 0.00 | 47 | 1005.6 |
| 20260503215508 | 77 | 0 | 0.0 | 0.0 | 0.00 | 0.00 | 0.00 | 47 | 1005.6 |
| 20260503215008 | 77 | 0 | 0.0 | 0.0 | 0.00 | 0.00 | 0.00 | 48 | 1005.7 |
| 20260503214509 | 78 | 0 | 0.0 | 0.0 | 0.00 | 0.00 | 0.00 | 46 | 1005.8 |
| 20260503214008 | 78 | 0 | 0.0 | 5.0 | 0.00 | 0.00 | 0.00 | 46 | 1005.8 |
| 20260503213508 | 79 | 287 | 0.0 | 5.0 | 0.00 | 0.00 | 0.00 | 45 | 1005.9 |
| 20260503213008 | 79 | 302 | 2.0 | 5.0 | 0.00 | 0.00 | 0.00 | 44 | 1005.9 |
| 20260503212508 | 80 | 0 | 0.0 | 3.0 | 0.00 | 0.00 | 0.00 | 46 | 1005.9 |
| 20260503212008 | 80 | 285 | 0.0 | 5.0 | 0.00 | 0.00 | 0.00 | 46 | 1005.9 |
| 20260503211508 | 80 | 302 | 0.0 | 5.0 | 0.00 | 0.00 | 0.00 | 44 | 1005.9 |
| 20260503211008 | 80 | 282 | 0.0 | 5.0 | 0.00 | 0.00 | 0.00 | 44 | 1006.0 |
| 20260503210509 | 80 | 0 | 0.0 | 0.0 | 0.00 | 0.00 | 0.00 | 45 | 1005.9 |
| 20260503210008 | 80 | 0 | 0.0 | 0.0 | 0.00 | 0.00 | 0.00 | 45 | 1006.0 |
| 20260503205508 | 80 | 0 | 0.0 | 5.0 | 0.00 | 0.00 | 0.00 | 46 | 1006.0 |
| 20260503205008 | 80 | 0 | 0.0 | 5.0 | 0.00 | 0.00 | 0.00 | 46 | 1006.0 |
| 20260503204509 | 80 | 0 | 0.0 | 5.0 | 0.00 | 0.00 | 0.00 | 46 | 1006.0 |
| 20260503204008 | 80 | 327 | 0.0 | 7.0 | 0.00 | 0.00 | 0.00 | 46 | 1006.0 |
| 20260503203509 | 80 | 324 | 3.0 | 7.0 | 0.00 | 0.00 | 0.00 | 46 | 1006.0 |
| 20260503203009 | 80 | 347 | 4.0 | 7.0 | 0.00 | 0.00 | 0.00 | 46 | 1006.1 |
| 20260503202510 | 80 | 337 | 2.0 | 8.0 | 0.00 | 0.00 | 0.00 | 46 | 1006.1 |
| 20260503202009 | 80 | 330 | 0.0 | 8.0 | 0.00 | 0.00 | 0.00 | 45 | 1006.1 |
| 20260503201509 | 80 | 330 | 6.0 | 8.0 | 0.00 | 0.00 | 0.00 | 45 | 1006.1 |
| 20260503201010 | 81 | 333 | 0.0 | 6.0 | 0.00 | 0.00 | 0.00 | 44 | 1006.1 |
| 20260503200509 | 81 | 316 | 0.0 | 6.0 | 0.00 | 0.00 | 0.00 | 43 | 1006.1 |
| 20260503200009 | 81 | 284 | 0.0 | 6.0 | 0.00 | 0.00 | 0.00 | 42 | 1006.2 |
| 20260503195508 | 81 | 291 | 3.0 | 6.0 | 0.00 | 0.00 | 0.00 | 41 | 1006.4 |
| 20260503195008 | 82 | 0 | 0.0 | 3.0 | 0.00 | 0.00 | 0.00 | 41 | 1006.2 |
| 20260503194508 | 82 | 338 | 0.0 | 3.0 | 0.00 | 0.00 | 0.00 | 41 | 1006.4 |
| 20260503194008 | 82 | 0 | 0.0 | 5.0 | 0.00 | 0.00 | 0.00 | 41 | 1006.2 |
| 20260503193508 | 82 | 331 | 0.0 | 5.0 | 0.00 | 0.00 | 0.00 | 41 | 1006.4 |
| 20260503193009 | 82 | 336 | 0.0 | 5.0 | 0.00 | 0.00 | 0.00 | 41 | 1006.4 |
| 20260503192508 | 82 | 0 | 0.0 | 5.0 | 0.00 | 0.00 | 0.00 | 41 | 1006.5 |
| 20260503192008 | 82 | 303 | 0.0 | 5.0 | 0.00 | 0.00 | 0.00 | 42 | 1006.5 |
| 20260503191509 | 81 | 280 | 0.0 | 5.0 | 0.00 | 0.00 | 0.00 | 41 | 1006.6 |
| 20260503191009 | 81 | 288 | 0.0 | 4.0 | 0.00 | 0.00 | 0.00 | 42 | 1006.5 |
| 20260503190509 | 81 | 0 | 0.0 | 4.0 | 0.00 | 0.00 | 0.00 | 42 | 1006.5 |
| 20260503190009 | 81 | 0 | 0.0 | 4.0 | 0.00 | 0.00 | 0.00 | 42 | 1006.6 |
| 20260503185511 | 81 | 280 | 0.0 | 4.0 | 0.00 | 0.00 | 0.00 | 42 | 1006.7 |
| 20260503185008 | 81 | 275 | 1.0 | 4.0 | 0.00 | 0.00 | 0.00 | 43 | 1006.6 |
| 20260503184508 | 80 | 0 | 0.0 | 4.0 | 0.00 | 0.00 | 0.00 | 43 | 1006.6 |
| 20260503184009 | 81 | 299 | 0.0 | 4.0 | 0.00 | 0.00 | 0.00 | 41 | 1006.7 |
| 20260503183508 | 81 | 232 | 1.0 | 4.0 | 0.00 | 0.00 | 0.00 | 42 | 1006.7 |
| 20260503183008 | 82 | 0 | 0.0 | 0.0 | 0.00 | 0.00 | 0.00 | 42 | 1006.6 |
| 20260503182509 | 82 | 0 | 0.0 | 0.0 | 0.00 | 0.00 | 0.00 | 43 | 1006.7 |
| 20260503182008 | 82 | 0 | 0.0 | 0.0 | 0.00 | 0.00 | 0.00 | 43 | 1006.6 |
| 20260503181508 | 82 | 0 | 0.0 | 0.0 | 0.00 | 0.00 | 0.00 | 43 | 1006.6 |
| 20260503181008 | 81 | 0 | 0.0 | 0.0 | 0.00 | 0.00 | 0.00 | 43 | 1006.7 |
| 20260503180508 | 81 | 0 | 0.0 | 0.0 | 0.00 | 0.00 | 0.00 | 43 | 1006.7 |
| 20260503180008 | 81 | 0 | 0.0 | 0.0 | 0.00 | 0.00 | 0.00 | 43 | 1006.6 |
| 20260503175508 | 80 | 0 | 0.0 | 0.0 | 0.00 | 0.00 | 0.00 | 44 | 1006.6 |
| 20260503175008 | 81 | 0 | 0.0 | 0.0 | 0.00 | 0.00 | 0.00 | 43 | 1006.6 |
| 20260503174509 | 81 | 0 | 0.0 | 0.0 | 0.00 | 0.00 | 0.00 | 43 | 1006.6 |
| 20260503174008 | 81 | 0 | 0.0 | 0.0 | 0.00 | 0.00 | 0.00 | 45 | 1006.6 |
| 20260503173508 | 81 | 0 | 0.0 | 0.0 | 0.00 | 0.00 | 0.00 | 45 | 1006.6 |
| 20260503173009 | 81 | 0 | 0.0 | 0.0 | 0.00 | 0.00 | 0.00 | 45 | 1006.7 |
| 20260503172508 | 81 | 0 | 0.0 | 0.0 | 0.00 | 0.00 | 0.00 | 45 | 1006.6 |
| 20260503172008 | 81 | 0 | 0.0 | 0.0 | 0.00 | 0.00 | 0.00 | 46 | 1006.6 |
| 20260503171508 | 81 | 0 | 0.0 | 0.0 | 0.00 | 0.00 | 0.00 | 46 | 1006.9 |
| 20260503171008 | 80 | 0 | 0.0 | 0.0 | 0.00 | 0.00 | 0.00 | 47 | 1006.9 |
| 20260503170508 | 80 | 0 | 0.0 | 0.0 | 0.00 | 0.00 | 0.00 | 47 | 1006.9 |
| 20260503151008 | 67 | 0 | 0.0 | 0.0 | 0.00 | 0.00 | 0.00 | 84 | 1006.7 |
| 20260503150508 | 66 | 0 | 0.0 | 0.0 | 0.00 | 0.00 | 0.00 | 86 | 1006.8 |
| 20260503131008 | 52 | 0 | 0.0 | 0.0 | 0.00 | 0.00 | 0.00 | 97 | 1006.6 |
| 20260503130508 | 52 | 0 | 0.0 | 0.0 | 0.00 | 0.00 | 0.00 | 97 | 1006.6 |
| 20260503110508 | 51 | 0 | 0.0 | 0.0 | 0.00 | 0.00 | 0.00 | 96 | 1007.2 |
| 20260503090508 | 52 | 0 | 0.0 | 0.0 | 0.00 | 0.00 | 0.00 | 96 | 1008.1 |
| 20260503081508 | 52 | 0 | 0.0 | 0.0 | 0.00 | 0.00 | 0.00 | 97 | 1008.7 |
| 20260503081008 | 52 | 0 | 0.0 | 0.0 | 0.00 | 0.00 | 0.00 | 97 | 1008.7 |
| 20260503080508 | 52 | 0 | 0.0 | 0.0 | 0.00 | 0.00 | 0.00 | 97 | 1008.5 |
| 20260503072508 | 52 | 0 | 0.0 | 0.0 | 0.00 | 0.00 | 0.00 | 96 | 1008.7 |
| 20260503072008 | 52 | 0 | 0.0 | 0.0 | 0.00 | 0.00 | 0.00 | 96 | 1008.9 |
| 20260503071508 | 52 | 0 | 0.0 | 0.0 | 0.00 | 0.00 | 0.00 | 96 | 1008.9 |
| 20260503071008 | 53 | 0 | 0.0 | 0.0 | 0.00 | 0.00 | 0.00 | 96 | 1008.9 |
| 20260503070508 | 53 | 0 | 0.0 | 0.0 | 0.00 | 0.00 | 0.00 | 96 | 1008.9 |
| 20260503055009 | 54 | 0 | 0.0 | 0.0 | 0.00 | 0.00 | 0.00 | 94 | 1009.0 |
| 20260503054508 | 54 | 0 | 0.0 | 0.0 | 0.00 | 0.00 | 0.00 | 94 | 1009.1 |
| 20260503054008 | 54 | 0 | 0.0 | 0.0 | 0.00 | 0.00 | 0.00 | 93 | 1009.1 |
| 20260503053510 | 54 | 0 | 0.0 | 0.0 | 0.00 | 0.00 | 0.00 | 93 | 1009.1 |
| 20260503053009 | 54 | 0 | 0.0 | 0.0 | 0.00 | 0.00 | 0.00 | 93 | 1009.2 |
| 20260503052510 | 55 | 0 | 0.0 | 0.0 | 0.00 | 0.00 | 0.00 | 93 | 1009.2 |
| 20260503051508 | 55 | 0 | 0.0 | 0.0 | 0.00 | 0.00 | 0.00 | 93 | 1009.1 |
| 20260503051056 | 55 | 0 | 0.0 | 0.0 | 0.00 | 0.00 | 0.00 | 93 | 1009.1 |
| 20260503051008 | 55 | 0 | 0.0 | 0.0 | 0.00 | 0.00 | 0.00 | 93 | 1009.1 |
| 20260503050508 | 55 | 0 | 0.0 | 0.0 | 0.00 | 0.00 | 0.00 | 93 | 1009.0 |
| 20260503050008 | 55 | 0 | 0.0 | 0.0 | 0.00 | 0.00 | 0.00 | 93 | 1009.0 |
| 20260503045508 | 54 | 0 | 0.0 | 12.0 | 0.00 | 0.00 | 0.00 | 94 | 1009.0 |
| 20260503045008 | 55 | 0 | 0.0 | 12.0 | 0.00 | 0.00 | 0.00 | 93 | 1009.0 |
| 20260503044508 | 55 | 341 | 0.0 | 12.0 | 0.00 | 0.00 | 0.00 | 94 | 1008.9 |
| 20260503044007 | 55 | 344 | 0.0 | 12.0 | 0.00 | 0.00 | 0.00 | 94 | 1009.0 |
| 20260503043508 | 55 | 347 | 6.0 | 12.0 | 0.00 | 0.00 | 0.00 | 94 | 1009.1 |
| 20260503043008 | 55 | 340 | 4.0 | 12.0 | 0.00 | 0.00 | 0.00 | 93 | 1009.1 |
| 20260503042508 | 55 | 334 | 6.0 | 12.0 | 0.00 | 0.00 | 0.00 | 93 | 1009.0 |
| 20260503042009 | 55 | 343 | 6.0 | 11.0 | 0.00 | 0.00 | 0.00 | 92 | 1009.1 |
| 20260503041508 | 55 | 340 | 4.0 | 11.0 | 0.00 | 0.00 | 0.00 | 92 | 1009.2 |
| 20260503041008 | 55 | 352 | 1.0 | 10.0 | 0.00 | 0.00 | 0.00 | 92 | 1009.1 |
| 20260503040508 | 55 | 344 | 2.0 | 13.0 | 0.00 | 0.00 | 0.00 | 91 | 1009.2 |
| 20260503040008 | 55 | 345 | 3.0 | 13.0 | 0.00 | 0.00 | 0.00 | 91 | 1009.1 |
| 20260503035508 | 55 | 343 | 8.0 | 13.0 | 0.00 | 0.00 | 0.00 | 90 | 1009.1 |
| 20260503035008 | 55 | 341 | 9.0 | 9.0 | 0.00 | 0.00 | 0.00 | 90 | 1009.0 |
| 20260503034508 | 55 | 336 | 0.0 | 11.0 | 0.00 | 0.00 | 0.00 | 90 | 1009.0 |
| 20260503034008 | 55 | 337 | 0.0 | 11.0 | 0.00 | 0.00 | 0.00 | 89 | 1009.0 |
| 20260503033508 | 55 | 350 | 3.0 | 11.0 | 0.00 | 0.00 | 0.00 | 89 | 1009.0 |
| 20260503033008 | 56 | 343 | 5.0 | 12.0 | 0.00 | 0.00 | 0.00 | 88 | 1008.9 |
| 20260503032508 | 56 | 348 | 6.0 | 12.0 | 0.00 | 0.00 | 0.00 | 88 | 1008.9 |
| 20260503032008 | 56 | 343 | 5.0 | 12.0 | 0.00 | 0.00 | 0.00 | 87 | 1008.8 |
| 20260503031508 | 56 | 350 | 8.0 | 11.0 | 0.00 | 0.00 | 0.00 | 87 | 1008.7 |
| 20260503031007 | 56 | 0 | 0.0 | 9.0 | 0.00 | 0.00 | 0.00 | 86 | 1008.8 |
| 20260503030508 | 57 | 337 | 4.0 | 10.0 | 0.00 | 0.00 | 0.00 | 86 | 1009.0 |
| 20260503030008 | 57 | 343 | 2.0 | 10.0 | 0.00 | 0.00 | 0.00 | 86 | 1008.9 |
| 20260503025508 | 57 | 354 | 7.0 | 10.0 | 0.00 | 0.00 | 0.00 | 85 | 1008.9 |
| 20260503025008 | 57 | 351 | 6.0 | 11.0 | 0.00 | 0.00 | 0.00 | 85 | 1009.0 |
| 20260503024508 | 57 | 345 | 4.0 | 11.0 | 0.00 | 0.00 | 0.00 | 85 | 1009.0 |
| 20260503024008 | 57 | 331 | 7.0 | 11.0 | 0.00 | 0.00 | 0.00 | 85 | 1008.9 |
| 20260503023508 | 57 | 352 | 3.0 | 10.0 | 0.00 | 0.00 | 0.00 | 86 | 1008.8 |
| 20260503023008 | 57 | 343 | 4.0 | 10.0 | 0.00 | 0.00 | 0.00 | 86 | 1008.8 |
| 20260503022508 | 57 | 337 | 1.0 | 15.0 | 0.00 | 0.00 | 0.00 | 86 | 1008.6 |
| 20260503022009 | 57 | 337 | 7.0 | 15.0 | 0.00 | 0.00 | 0.00 | 86 | 1008.5 |
| 20260503021507 | 57 | 348 | 9.0 | 15.0 | 0.00 | 0.00 | 0.00 | 86 | 1008.5 |
| 20260503021007 | 57 | 336 | 10.0 | 18.0 | 0.00 | 0.00 | 0.00 | 86 | 1008.6 |
| 20260503020507 | 57 | 337 | 11.0 | 18.0 | 0.00 | 0.00 | 0.00 | 85 | 1008.6 |
| 20260503020007 | 57 | 334 | 11.0 | 18.0 | 0.00 | 0.00 | 0.00 | 84 | 1008.7 |
| 20260503015507 | 57 | 333 | 11.0 | 19.0 | 0.00 | 0.00 | 0.00 | 84 | 1008.7 |
| 20260503015007 | 58 | 343 | 11.0 | 19.0 | 0.00 | 0.00 | 0.00 | 83 | 1008.7 |
| 20260503014507 | 58 | 343 | 10.0 | 19.0 | 0.00 | 0.00 | 0.00 | 82 | 1008.7 |
| 20260503014007 | 58 | 351 | 10.0 | 16.0 | 0.00 | 0.00 | 0.00 | 82 | 1008.7 |
| 20260503013507 | 58 | 334 | 8.0 | 16.0 | 0.00 | 0.00 | 0.00 | 82 | 1008.8 |
| 20260503013007 | 58 | 347 | 7.0 | 16.0 | 0.00 | 0.00 | 0.00 | 82 | 1008.8 |
| 20260503012507 | 58 | 344 | 4.0 | 15.0 | 0.00 | 0.00 | 0.00 | 82 | 1008.9 |
| 20260503012007 | 58 | 343 | 6.0 | 16.0 | 0.00 | 0.00 | 0.00 | 82 | 1008.9 |
| 20260503011507 | 58 | 345 | 8.0 | 16.0 | 0.00 | 0.00 | 0.00 | 81 | 1009.0 |
| 20260503011007 | 59 | 343 | 10.0 | 16.0 | 0.00 | 0.00 | 0.00 | 81 | 1008.9 |
| 20260503010507 | 59 | 330 | 9.0 | 16.0 | 0.00 | 0.00 | 0.00 | 80 | 1009.1 |
| 20260503010007 | 59 | 331 | 8.0 | 16.0 | 0.00 | 0.00 | 0.00 | 80 | 1009.0 |
| 20260503005507 | 59 | 340 | 8.0 | 17.0 | 0.00 | 0.00 | 0.00 | 80 | 1008.9 |
| 20260503005008 | 59 | 340 | 12.0 | 17.0 | 0.00 | 0.00 | 0.00 | 80 | 1009.0 |
| 20260503004507 | 59 | 347 | 10.0 | 17.0 | 0.00 | 0.00 | 0.00 | 80 | 1009.1 |
| 20260503004007 | 59 | 343 | 7.0 | 17.0 | 0.00 | 0.00 | 0.00 | 80 | 1009.1 |
| 20260503003507 | 59 | 347 | 9.0 | 17.0 | 0.00 | 0.00 | 0.00 | 80 | 1009.0 |
| 20260503003007 | 59 | 331 | 9.0 | 17.0 | 0.00 | 0.00 | 0.00 | 79 | 1008.9 |
| 20260503002507 | 59 | 334 | 11.0 | 18.0 | 0.00 | 0.00 | 0.00 | 79 | 1008.8 |
| 20260503002008 | 60 | 344 | 10.0 | 18.0 | 0.00 | 0.00 | 0.00 | 78 | 1008.9 |
| 20260503001508 | 60 | 347 | 11.0 | 18.0 | 0.00 | 0.00 | 0.00 | 77 | 1009.0 |
| 20260503001007 | 60 | 324 | 7.0 | 17.0 | 0.00 | 0.00 | 0.00 | 77 | 1008.9 |
| 20260503000507 | 60 | 348 | 9.0 | 17.0 | 0.00 | 0.00 | 0.00 | 77 | 1009.0 |